Location: Ammerl�gen
(47.2167°N, 9.6000°E)
Time: 04:28:40
(UTC+00:00)

NOAA 19 - Pass Details

Date: 05 December 2021
Orbit: 841 x 860 km, 99.2° (Epoch: 16 January)

Event Time Altitude Azimuth Distance (km) Brightness Sun altitude
Rises 16:41:40 0° 126° (SE) 3,390 8.0 -11.3°
Reaches altitude 10° 16:44:21 10° 115° (ESE) 2,460 7.2 -11.8°
Maximum altitude 16:48:46 26° 60° (ENE) 1,607 6.1 -12.5°
Drops below altitude 10° 16:53:13 10° 6° (N) 2,480 7.4 -13.2°
Sets 16:55:56 0° 354° (N) 3,422 8.2 -13.6°
